Weather History for KMDZ - July, 2014

Change the Weather History Date:

Wednesday, July 9, 2014

  Actual Average Record
Temperature  
Mean Temperature 60 °F -  
Max Temperature 69 °F 79 °F 93 °F (1974)
Min Temperature 51 °F 58 °F 41 °F (1953)
Degree Days  
Heating Degree Days 5    
Growing Degree Days 10 (Base 50)    
Moisture  
Dew Point 52 °F    
Average Humidity 76    
Maximum Humidity 97    
Minimum Humidity 49    
Precipitation  
Precipitation 0.00 in - - ()
Sea Level Pressure  
Sea Level Pressure 29.97 in    
Wind  
Wind Speed 6 mph (NW)    
Max Wind Speed 15 mph    
Max Gust Speed 20 mph    
Visibility 10 miles    
Events      
Averages and records for this station are not official NWS values.
T = Trace of Precipitation, MM = Missing Value Source: NWS Daily Summary

Daily Weather History Graph

Daily Weather History Graph

Search for Another Location

Airport or City:

Trip Planner

Search our weather history database for the weather conditions in past years. The results will help you decide how hot, cold, wet, or windy it might be!

Date:

Astronomy

Jul. 09, 2014 Rise Set
Actual Time 5:23 AM CDT 8:49 PM CDT
Civil Twilight 4:46 AM CDT 9:25 PM CDT
Nautical Twilight 3:58 AM CDT 10:13 PM CDT
Astronomical Twilight 2:56 AM CDT 11:14 PM CDT
Moon 5:57 PM CDT (7/9) 2:45 AM CDT (7/9)
Length of Visible Light 16h 39m
Length of Day
15h 25m
Waxing Gibbous, 89% of the Moon is Illuminated
Jul 9
Waxing Gibbous
Jul 12
Full
Jul 18
Last Quarter
Jul 26
New
Aug 3
First Quarter

Hourly Weather History & Observations

Time (CDT) Temp. Dew Point Humidity Pressure Visibility Wind Dir Wind Speed Gust Speed Precip Events Conditions
12:15 AM 58.1 °F 57.2 °F 97% 29.86 in 10.0 mi NW 3.5 mph - N/A   Overcast
12:35 AM 58.1 °F 57.2 °F 97% 29.86 in 10.0 mi WNW 3.5 mph - N/A   Overcast
12:55 AM 58.3 °F 57.2 °F 96% 29.86 in 10.0 mi NW 3.5 mph - N/A   Overcast
1:15 AM 58.3 °F 57.2 °F 96% 29.86 in 10.0 mi WNW 3.5 mph - N/A   Overcast
1:35 AM 58.1 °F 56.8 °F 96% 29.86 in 10.0 mi West 4.6 mph - N/A   Overcast
1:55 AM 57.9 °F 56.8 °F 96% 29.86 in 10.0 mi WNW 4.6 mph - N/A   Overcast
2:15 AM 57.7 °F 56.7 °F 96% 29.87 in 10.0 mi WNW 5.8 mph - N/A   Overcast
2:35 AM 57.6 °F 56.5 °F 96% 29.87 in 10.0 mi WNW 4.6 mph - N/A   Overcast
2:55 AM 57.6 °F 56.3 °F 96% 29.87 in 10.0 mi NW 6.9 mph - N/A   Overcast
3:15 AM 57.2 °F 55.9 °F 96% 29.87 in 10.0 mi NW 5.8 mph - N/A   Overcast
3:35 AM 55.8 °F 53.6 °F 92% 29.87 in 10.0 mi North 4.6 mph - N/A   Light Drizzle
3:55 AM 54.9 °F 54.0 °F 97% 29.88 in 10.0 mi NNW 4.6 mph - N/A   Mostly Cloudy
4:15 AM 54.7 °F 53.6 °F 96% 29.88 in 10.0 mi NW 4.6 mph - N/A   Mostly Cloudy
4:35 AM 53.6 °F 52.7 °F 97% 29.89 in 10.0 mi NNW 4.6 mph - N/A   Clear
4:55 AM 52.9 °F 52.0 °F 97% 29.89 in 10.0 mi WNW 3.5 mph - N/A   Clear
5:15 AM 53.6 °F 52.9 °F 97% 29.90 in 10.0 mi WNW 4.6 mph - N/A   Mostly Cloudy
5:35 AM 53.6 °F 52.3 °F 95% 29.91 in 10.0 mi WNW 3.5 mph - N/A   Mostly Cloudy
5:55 AM 53.6 °F 52.7 °F 97% 29.91 in 10.0 mi WSW 3.5 mph - N/A   Scattered Clouds
6:15 AM 53.8 °F 52.9 °F 97% 29.92 in 10.0 mi West 5.8 mph - N/A   Mostly Cloudy
6:35 AM 54.0 °F 52.9 °F 96% 29.93 in 10.0 mi WNW 4.6 mph - N/A   Mostly Cloudy
6:55 AM 54.1 °F 50.0 °F 86% 29.94 in 10.0 mi NNW 12.7 mph 18.4 mph N/A   Mostly Cloudy
7:15 AM 54.0 °F 49.8 °F 86% 29.94 in 10.0 mi NNW 9.2 mph 17.3 mph N/A   Scattered Clouds
7:35 AM 54.7 °F 50.5 °F 86% 29.94 in 10.0 mi NW 10.4 mph 16.1 mph N/A   Clear
7:55 AM 54.7 °F 50.4 °F 85% 29.95 in 10.0 mi NNW 10.4 mph 16.1 mph N/A   Scattered Clouds
8:15 AM 55.2 °F 50.5 °F 84% 29.96 in 10.0 mi NNW 12.7 mph - N/A   Scattered Clouds
8:35 AM 55.0 °F 50.2 °F 84% 29.97 in 10.0 mi North 9.2 mph - N/A   Scattered Clouds
8:55 AM 56.5 °F 50.9 °F 82% 29.97 in 10.0 mi NNW 9.2 mph 16.1 mph N/A   Scattered Clouds
9:15 AM 57.9 °F 51.4 °F 79% 29.97 in 10.0 mi NNW 9.2 mph - N/A   Clear
9:35 AM 58.8 °F 51.1 °F 75% 29.98 in 10.0 mi North 9.2 mph - N/A   Clear
9:55 AM 60.4 °F 51.1 °F 71% 29.98 in 10.0 mi North 11.5 mph - N/A   Clear
10:15 AM 61.5 °F 50.9 °F 68% 29.98 in 10.0 mi NNW 9.2 mph - N/A   Scattered Clouds
10:35 AM 61.5 °F 50.5 °F 67% 29.98 in 10.0 mi NW 11.5 mph - N/A   Mostly Cloudy
10:55 AM 63.0 °F 50.2 °F 63% 29.98 in 10.0 mi NNW 9.2 mph 16.1 mph N/A   Scattered Clouds
11:15 AM 62.8 °F 50.2 °F 63% 29.99 in 10.0 mi NW 10.4 mph - N/A   Mostly Cloudy
11:35 AM 64.4 °F 50.0 °F 59% 29.99 in 10.0 mi NNW 13.8 mph 17.3 mph N/A   Scattered Clouds
11:55 AM 64.4 °F 50.2 °F 60% 30.00 in 10.0 mi NNW 12.7 mph 16.1 mph N/A   Mostly Cloudy
12:15 PM 64.4 °F 50.7 °F 61% 30.00 in 10.0 mi NNW 12.7 mph 17.3 mph N/A   Mostly Cloudy
12:35 PM 64.2 °F 49.1 °F 58% 30.00 in 10.0 mi NNW 11.5 mph 18.4 mph N/A   Overcast
12:55 PM 65.7 °F 50.9 °F 59% 30.00 in 10.0 mi NW 11.5 mph 17.3 mph N/A   Mostly Cloudy
1:15 PM 65.3 °F 50.0 °F 58% 30.00 in 10.0 mi WNW 12.7 mph 17.3 mph N/A   Overcast
1:35 PM 64.9 °F 49.6 °F 58% 30.00 in 10.0 mi NW 11.5 mph 18.4 mph N/A   Mostly Cloudy
1:55 PM 65.1 °F 50.2 °F 58% 30.00 in 10.0 mi NW 10.4 mph 16.1 mph N/A   Overcast
2:15 PM 66.7 °F 50.4 °F 56% 30.00 in 10.0 mi WNW 10.4 mph - N/A   Mostly Cloudy
2:35 PM 67.5 °F 50.0 °F 53% 30.00 in 10.0 mi West 15.0 mph 18.4 mph N/A   Scattered Clouds
2:55 PM 66.4 °F 50.7 °F 57% 30.00 in 10.0 mi NW 10.4 mph - N/A   Mostly Cloudy
3:15 PM 66.7 °F 49.3 °F 53% 30.01 in 10.0 mi WNW 12.7 mph 19.6 mph N/A   Overcast
3:35 PM 69.1 °F 50.2 °F 51% 30.01 in 10.0 mi NNW 12.7 mph 16.1 mph N/A   Overcast
3:55 PM 68.5 °F 48.6 °F 49% 30.01 in 10.0 mi NW 10.4 mph 18.4 mph N/A   Mostly Cloudy
4:15 PM 68.0 °F 49.5 °F 51% 30.01 in 10.0 mi NNW 11.5 mph - N/A   Scattered Clouds
4:35 PM 68.7 °F 50.2 °F 52% 30.01 in 10.0 mi NNW 9.2 mph - N/A   Scattered Clouds
4:55 PM 68.2 °F 49.5 °F 51% 30.02 in 10.0 mi WNW 8.1 mph - N/A   Scattered Clouds
5:15 PM 68.4 °F 49.1 °F 50% 30.02 in 10.0 mi North 8.1 mph - N/A   Mostly Cloudy
5:35 PM 68.4 °F 49.5 °F 51% 30.02 in 10.0 mi North 8.1 mph - N/A   Mostly Cloudy
5:55 PM 68.0 °F 50.0 °F 52% 30.02 in 10.0 mi NNE 4.6 mph - N/A   Scattered Clouds
6:15 PM 68.2 °F 49.5 °F 51% 30.02 in 10.0 mi NNW 9.2 mph - N/A   Scattered Clouds
6:35 PM 66.4 °F 49.5 °F 54% 30.02 in 10.0 mi North 6.9 mph - N/A   Clear
6:55 PM 67.1 °F 49.8 °F 54% 30.02 in 10.0 mi North 5.8 mph - N/A   Clear
7:15 PM 66.4 °F 49.8 °F 55% 30.02 in 10.0 mi North 6.9 mph - N/A   Clear
7:35 PM 65.5 °F 51.1 °F 60% 30.02 in 10.0 mi North 3.5 mph - N/A   Clear
7:55 PM 64.4 °F 52.3 °F 65% 30.03 in 10.0 mi Calm Calm - N/A   Clear
8:15 PM 63.3 °F 52.3 °F 67% 30.03 in 10.0 mi NNE 3.5 mph - N/A   Clear
8:35 PM 60.8 °F 53.1 °F 76% 30.04 in 10.0 mi ENE 3.5 mph - N/A   Clear
8:55 PM 57.7 °F 53.1 °F 84% 30.04 in 10.0 mi East 3.5 mph - N/A   Clear
9:15 PM 55.2 °F 52.0 °F 89% 30.05 in 10.0 mi Calm Calm - N/A   Clear
9:35 PM 53.4 °F 51.4 °F 93% 30.05 in 10.0 mi Calm Calm - N/A   Clear
9:55 PM 52.9 °F 50.5 °F 92% 30.06 in 10.0 mi Calm Calm - N/A   Clear
10:15 PM 52.9 °F 51.1 °F 94% 30.06 in 10.0 mi Calm Calm - N/A   Clear
10:35 PM 52.2 °F 50.2 °F 93% 30.06 in 10.0 mi Calm Calm - N/A   Clear
10:55 PM 53.6 °F 52.0 °F 94% 30.07 in 10.0 mi Calm Calm - N/A   Clear
11:15 PM 51.4 °F 49.8 °F 94% 30.07 in 10.0 mi Calm Calm - N/A   Clear
11:35 PM 51.4 °F 50.7 °F 97% 30.07 in 10.0 mi Calm Calm - N/A   Clear
11:55 PM 51.1 °F 50.0 °F 96% 30.08 in 10.0 mi Calm Calm - N/A   Clear